Location: Taukkyan
(23.1052°N, 94.0030°E)
Time: 11:22:14
(UTC+00:00)

SEDSat Delta rocket - Pass Details

Date: 06 July 2020
Orbit: 533 x 1001 km, 31.4° (Epoch: 14 August)

Event Time Altitude Azimuth Distance (km) Brightness Sun altitude
Rises 22:21:32 0° 292° (WNW) 3,671 6.6 -9.5°
Reaches altitude 10° 22:24:18 10° 292° (WNW) 2,686 6.0 -9.0°
Maximum altitude 22:30:51 85° 205° (SSW) 898 3.8 -7.7°
Drops below altitude 10° 22:36:40 10° 117° (ESE) 2,398 6.6 -6.5°
Sets 22:39:01 0° 116° (ESE) 3,255 7.3 -6.0°
